Total_Precipitation_Accumulation
0.25 0.28 0.60 0.74 0.77 0.83 0.82 0.82 0.83 0.81 0.80 0.86 0.90 0.91 0.92 0.86 0.85 0.84 0.86 0.78 0.79 0.85 0.97 1.06 1.07 1.04 0.97 0.87 0.73 0.66 0.63 0.63 0.60 0.61 0.69 0.76 0.77 0.71 0.67 0.64 0.64 0.65 0.82
0.21 0.26 0.51 0.61 0.72 0.78 0.78 0.82 0.78 0.69 0.73 0.80 0.83 0.84 0.89 0.90 0.89 0.92 0.91 0.85 0.87 0.96 1.01 1.09 1.02 0.97 0.88 0.87 0.78 0.64 0.60 0.55 0.48 0.44 0.44 0.49 0.63 0.67 0.66 0.64 0.63 0.72 0.77
0.18 0.23 0.41 0.58 0.69 0.77 0.79 0.80 0.75 0.67 0.70 0.74 0.78 0.83 0.92 0.95 0.94 0.97 0.89 0.89 0.93 1.01 1.02 1.02 0.97 0.91 0.82 0.81 0.83 0.71 0.62 0.51 0.43 0.38 0.33 0.36 0.55 0.70 0.65 0.63 0.65 0.78 0.80
0.14 0.20 0.32 0.54 0.67 0.77 0.80 0.80 0.78 0.76 0.75 0.78 0.78 0.84 0.93 0.99 1.03 1.00 0.89 0.89 0.96 1.03 1.05 1.01 0.95 0.90 0.84 0.77 0.76 0.70 0.70 0.59 0.43 0.33 0.27 0.33 0.54 0.79 0.77 0.74 0.72 0.78 0.81
0.16 0.21 0.35 0.59 0.71 0.78 0.82 0.81 0.81 0.84 0.83 0.83 0.81 0.87 1.01 1.04 1.03 0.95 0.87 0.84 0.89 1.02 1.09 1.04 0.91 0.85 0.82 0.77 0.71 0.70 0.72 0.63 0.45 0.31 0.25 0.31 0.48 0.84 0.82 0.80 0.77 0.77 0.77
0.21 0.25 0.40 0.62 0.76 0.82 0.86 0.86 0.85 0.86 0.85 0.89 0.91 0.95 1.04 1.04 1.05 0.99 0.91 0.84 0.82 0.88 0.96 0.97 0.89 0.85 0.82 0.73 0.65 0.69 0.78 0.69 0.40 0.30 0.31 0.34 0.44 0.82 0.91 0.89 0.84 0.82 0.81
0.24 0.32 0.46 0.73 0.85 0.90 0.93 0.91 0.89 0.89 0.92 0.97 1.02 1.05 1.08 1.04 1.04 1.01 0.96 0.89 0.82 0.78 0.83 0.90 0.89 0.87 0.84 0.74 0.66 0.72 0.81 0.66 0.35 0.35 0.37 0.38 0.49 0.92 1.20 1.12 0.93 0.85 0.82
0.26 0.38 0.52 0.82 0.97 1.03 1.02 1.01 0.98 0.99 1.05 1.09 1.10 1.14 1.15 1.07 1.00 0.97 0.98 0.90 0.83 0.75 0.72 0.76 0.80 0.80 0.80 0.74 0.71 0.70 0.70 0.49 0.31 0.32 0.35 0.37 0.55 1.04 1.29 1.24 1.07 0.94 0.87
0.38 0.48 0.60 0.82 1.00 1.14 1.12 1.08 1.11 1.11 1.13 1.20 1.21 1.18 1.14 1.07 1.03 1.02 0.98 0.90 0.85 0.80 0.73 0.70 0.71 0.70 0.67 0.66 0.68 0.64 0.53 0.36 0.27 0.34 0.33 0.37 0.54 1.06 1.31 1.31 1.20 1.05 0.92
0.54 0.67 0.76 0.88 1.00 1.11 1.18 1.18 1.16 1.18 1.21 1.26 1.28 1.22 1.12 1.09 1.08 1.04 0.93 0.89 0.89 0.89 0.82 0.75 0.71 0.68 0.62 0.57 0.55 0.49 0.38 0.30 0.22 0.31 0.41 0.41 0.50 0.97 1.26 1.26 1.20 1.15 1.01
0.67 0.81 0.93 1.01 1.08 1.17 1.23 1.22 1.35 1.42 1.44 1.44 1.37 1.31 1.28 1.23 1.16 1.02 0.87 0.85 0.93 0.94 0.85 0.78 0.75 0.70 0.66 0.55 0.47 0.40 0.33 0.24 0.23 0.34 0.41 0.44 0.64 1.10 1.37 1.34 1.29 1.21 1.09
0.70 0.81 0.96 1.05 1.12 1.25 1.33 1.42 1.55 1.62 1.62 1.56 1.35 1.28 1.30 1.20 1.13 1.00 0.92 0.89 0.92 0.93 0.89 0.84 0.81 0.80 0.75 0.59 0.54 0.48 0.36 0.25 0.24 0.25 0.30 0.37 0.66 1.16 1.46 1.45 1.45 1.36 1.23
0.66 0.80 0.92 1.09 1.26 1.36 1.41 1.53 1.59 1.61 1.61 1.60 1.49 1.35 1.29 1.31 1.25 1.17 1.07 1.06 1.06 0.99 0.98 0.96 0.97 0.87 0.76 0.67 0.64 0.55 0.41 0.34 0.29 0.23 0.23 0.30 0.50 0.90 1.31 1.47 1.52 1.54 1.52
0.68 0.81 0.95 1.15 1.32 1.41 1.43 1.53 1.57 1.50 1.44 1.41 1.38 1.41 1.40 1.37 1.28 1.20 1.15 1.13 1.16 1.09 1.03 1.00 0.94 0.86 0.76 0.68 0.64 0.60 0.52 0.49 0.39 0.31 0.24 0.27 0.35 0.54 0.88 1.23 1.49 1.63 1.73
0.72 0.83 1.02 1.22 1.35 1.48 1.54 1.60 1.59 1.49 1.39 1.40 1.36 1.38 1.36 1.25 1.17 1.07 1.03 1.05 0.98 0.94 0.91 0.90 0.89 0.85 0.76 0.71 0.66 0.58 0.54 0.54 0.47 0.41 0.34 0.33 0.34 0.41 0.60 0.91 1.27 1.58 1.79
0.77 0.89 1.10 1.30 1.45 1.60 1.58 1.61 1.59 1.54 1.52 1.58 1.52 1.34 1.31 1.24 1.16 1.10 1.01 0.99 0.93 0.84 0.80 0.80 0.78 0.80 0.77 0.70 0.65 0.55 0.51 0.50 0.49 0.45 0.43 0.44 0.39 0.39 0.50 0.73 1.00 1.32 1.69
0.88 1.02 1.16 1.33 1.56 1.72 1.69 1.67 1.66 1.65 1.63 1.60 1.64 1.60 1.44 1.32 1.25 1.21 1.11 1.00 0.97 0.94 0.90 0.87 0.84 0.83 0.78 0.72 0.67 0.60 0.52 0.47 0.47 0.48 0.49 0.49 0.47 0.46 0.52 0.68 0.84 1.07 1.49
1.03 1.17 1.28 1.44 1.64 1.78 1.83 1.83 1.77 1.73 1.77 1.69 1.68 1.76 1.76 1.57 1.39 1.31 1.23 1.13 1.09 1.11 1.09 1.03 0.93 0.88 0.81 0.72 0.67 0.62 0.57 0.50 0.45 0.46 0.51 0.51 0.49 0.49 0.53 0.60 0.74 0.97 1.27
1.07 1.25 1.37 1.51 1.69 1.88 1.98 1.99 1.96 1.85 1.83 1.83 1.79 1.78 1.84 1.88 1.68 1.47 1.35 1.31 1.32 1.33 1.26 1.17 1.08 0.96 0.88 0.80 0.73 0.68 0.62 0.56 0.51 0.49 0.48 0.51 0.52 0.50 0.52 0.55 0.60 0.74 0.98
1.04 1.25 1.45 1.60 1.77 1.96 2.14 2.18 2.18 2.09 1.93 1.88 1.86 1.77 1.72 1.81 1.85 1.72 1.55 1.47 1.48 1.49 1.44 1.31 1.19 1.11 1.02 0.98 0.94 0.85 0.72 0.64 0.59 0.55 0.50 0.51 0.53 0.52 0.51 0.56 0.60 0.61 0.69
1.03 1.20 1.39 1.53 1.69 1.91 2.08 2.15 2.13 2.08 1.94 1.87 1.82 1.76 1.75 1.78 1.83 1.82 1.64 1.57 1.46 1.42 1.38 1.34 1.29 1.27 1.20 1.18 1.28 1.19 1.01 0.85 0.75 0.68 0.62 0.59 0.59 0.60 0.66 0.70 0.75 0.72 0.68
0.93 1.07 1.29 1.49 1.62 1.80 1.96 1.98 2.08 2.06 1.99 1.89 1.82 1.79 1.73 1.73 1.83 1.91 1.81 1.70 1.64 1.55 1.50 1.50 1.47 1.43 1.37 1.27 1.36 1.45 1.34 1.21 0.98 0.76 0.70 0.64 0.66 0.71 0.79 0.83 0.87 0.87 0.83
0.87 0.98 1.16 1.41 1.58 1.69 1.92 2.19 2.38 2.44 2.28 2.13 1.96 1.82 1.71 1.69 1.72 1.85 1.92 1.87 1.83 1.79 1.70 1.57 1.54 1.53 1.54 1.42 1.32 1.59 1.61 1.27 0.95 0.77 0.67 0.60 0.61 0.63 0.64 0.69 0.75 0.80 0.88
0.83 0.99 1.15 1.25 1.49 1.71 1.85 2.12 2.37 2.47 2.30 1.99 1.87 1.84 1.79 1.73 1.73 1.76 1.83 1.86 1.84 1.80 1.73 1.61 1.53 1.47 1.55 1.59 1.44 1.30 1.25 1.18 1.18 0.98 0.74 0.62 0.60 0.60 0.58 0.57 0.59 0.64 0.75
0.83 0.99 1.16 1.25 1.42 1.69 1.87 1.98 2.26 2.43 2.33 2.16 2.05 1.93 1.82 1.79 1.78 1.73 1.74 1.79 1.84 1.81 1.77 1.70 1.64 1.64 1.64 1.62 1.56 1.39 1.21 1.06 1.04 1.14 0.95 0.76 0.69 0.66 0.63 0.60 0.59 0.59 0.61
0.81 0.93 1.13 1.28 1.35 1.59 1.83 1.98 2.13 2.35 2.47 2.36 2.22 2.12 1.96 1.88 1.83 1.77 1.67 1.71 1.80 1.83 1.82 1.81 1.78 1.76 1.78 1.69 1.58 1.50 1.49 1.47 1.26 1.18 1.06 0.82 0.77 0.73 0.71 0.70 0.68 0.65 0.63